Weather Roundup
Issued by NWS Chicago, IL

Home | Current Version | Previous Version | Graphics & Text | Print | Product List | Glossary On
Versions: 1 2 3 4 5 6 7 8 9 10 11 12 13 14 15 16 17 18 19 20 21 22 23 24 25 26 27 28 29 30 31 32 33 34 35 36 37 38 39 40 41 42 43 44 45 46 47 48 49 50
568
NZUS59 KLOT 242103
HRRLOT

CHICAGO AREA WEATHER ROUNDUP
NATIONAL WEATHER SERVICE CHICAGO/ROMEOVILLE IL
400 PM CDT FRI MAR 24 2017

NOTE: "FAIR" INDICATES FEW OR NO CLOUDS BELOW 12,000 FEET WITH NO
SIGNIFICANT WEATHER AND/OR OBSTRUCTIONS TO VISIBILITY.

* THESE STATIONS ARE NOT UNDER NWS QUALITY CONTROL. THEY ALSO MAY NOT
  REPORT WEATHER SUCH AS PRECIPITATION OR FOG.

ILZ005-006-012>014-019>023-242200-
NORTHEAST ILLINOIS

CITY           SKY/WX    TMP DP  RH WIND       PRES   REMARKS
OHARE          CLOUDY    80  41  24 W15G24    29.88S
MIDWAY         PTSUNNY   80  45  28 SW20G31   29.89S
AURORA         CLOUDY    79  43  27 SW16G26   29.89R
LANSING*       CLOUDY    78  54  42 SW26G33   29.91R
JOLIET*        PTSUNNY   80  50  35 SW17G26   29.90R HX  80
WAUKEGAN       MOSUNNY   49  42  77 NE12      29.91R
DUPAGE AIRPORT MOSUNNY   78  43  28 W15G25    29.89R
WHEELING       CLOUDY    78  41  26 SW14G23   29.89S
MORRIS*        MOSUNNY   79  49  34 SW20G28   29.89R
NORTHERLY ISL    N/A     78  38  23 W13         N/A
$$

WIZ051-052-058>065-066-070>072-242200-
SOUTHEAST WISCONSIN

CITY           SKY/WX    TMP DP  RH WIND       PRES   REMARKS
MILWAUKEE      CLOUDY    42  35  76 N18G25    29.97R
KENOSHA*       CLOUDY    51  41  68 NE13      29.92R
RACINE*        CLOUDY    42  36  79 N15       29.95S
WAUKESHA       MOSUNNY   46  37  71 NE12      29.95R
WEST BEND      CLOUDY    45  37  76 NE9G22    29.97R
$$

INZ001>003-010>013-019-020-242200-
NORTHWEST INDIANA

CITY           SKY/WX    TMP DP  RH WIND       PRES   REMARKS
GARY*          MOSUNNY   81  39  22 W17G45    29.90S
MICHIGAN CITY* NOT AVBL
RENSSELAER*    NOT AVBL
VALPARAISO     PTSUNNY   79  53  40 SW25G35   29.93S
$$

LMZ740>746-242200-
SOUTHERN LAKE MICHIGAN

STATION/POSITION TIME  SKY/WX   TEMP WIND        PRES    VSBY
                                AIR  DIR/SP/G
                 (UTC)          (F)  (DEG/KT/KT) (MB)    (MI)
HARRISON CRIB    2040            77  260/ 19/ 22   N/A
BURNHAM HARBOR   2100            78  200/ 10/ 20   N/A
CALUMET HARBOR   2030            78  210/ 16/ 24 1011.5F
BURNS HARBOR     2040            75  220/ 27/ 32 1012.5F
MICHIGAN CITY    2040            68  230/ 18/ 21   N/A
$$

ABBREVIATIONS USED IN REMARKS
   TC - TEMPERATURE IN CELSIUS
  WCI - WIND CHILL INDEX
   HX - HEAT INDEX
  VSB - VISIBILITY
$$




USA.gov is the U.S. government's official web portal to all federal, state and local government web resources and services.